Flag for Germany Weather past 2 weeks in Falkensee, Brandenburg, Germany

Now
46 °F

Fog.


Feels Like: 46 °F
Forecast: 56 / 79 °F
Wind: No wind

Location: Berlin-Tegel

Current Time: Aug 1, 2015 at 3:40:33 AM

Latest Report: Aug 1, 2015 at 3:20 AM


Visibility: N/A

Pressure: 30.09 "Hg

Humidity: 100%

Dew point: 46 °F

Location of FalkenseeLocation

Historic Weather in Falkensee — Graph

°F

Falkensee temperature yesterday

Maximum temperature yesterday: 64 °F (at 11:50 AM)
Minimum temperature yesterday: 48 °F (at 4:20 AM)
Average temperature yesterday: 58 °F

Past Weeks' High & Low Weather Summary

 TemperatureHumidityPressure
High90 °F (Jul 17, 5:50 PM)100% (Jul 19, 11:50 AM)30.09 "Hg (Jul 19, 11:50 AM)
Low46 °F (Aug 1, 2:20 AM)28% (Jul 25, 4:20 PM)29.53 "Hg (Jul 25, 8:50 AM)
Average67 °F64%29.84 "Hg
* Reported Jul 17 2:20 AM — Aug 1 2:20 AM, Falkensee, Weather by CustomWeather, © 2015

Note: Actual official high and low records may vary slightly from our data, if they occured in-between our weather recording intervals... More about our weather records

Advertising

Falkensee weather history for previous 24 hours

 ConditionsComfort  
Time TempWeatherWind HumidityBarometerVisibility
2:20 AM
Sat, Aug 1
46 °FClear.No wind93%30.09 "Hg10 mi
1:50 AM48 °FClear.No wind87%30.09 "Hg10 mi
1:20 AM50 °FClear.No wind88%30.09 "Hg10 mi
12:50 AM48 °FClear.1 mph87%30.09 "Hg10 mi
12:20 AM50 °FClear.1 mph82%30.09 "Hg10 mi
11:50 PM
Fri, Jul 31
52 °FClear.No wind77%30.09 "Hg10 mi
11:20 PM52 °FClear.No wind82%30.07 "Hg10 mi
10:50 PM52 °FClear.No wind82%30.07 "Hg10 mi
10:20 PM55 °FClear.1 mph67%30.07 "Hg10 mi
9:50 PM57 °FSunny.2 mph63%30.07 "Hg10 mi
9:20 PM59 °FSunny.2 mph59%30.07 "Hg10 mi
8:50 PM61 °FSunny.3 mph52%30.07 "Hg10 mi
8:20 PM63 °FSunny.5 mph49%30.07 "Hg10 mi
7:50 PM63 °FPassing clouds.5 mph49%30.07 "HgN/A
7:20 PM63 °FPassing clouds.7 mph49%30.07 "HgN/A
6:50 PM63 °FPassing clouds.6 mph45%30.07 "HgN/A
6:20 PM64 °FPassing clouds.7 mph43%30.07 "HgN/A
5:50 PM64 °FSunny.8 mph46%30.07 "Hg10 mi
5:20 PM64 °FPartly sunny.10 mph43%30.07 "HgN/A
4:50 PM64 °FPartly sunny.10 mph43%30.07 "HgN/A
4:20 PM64 °FPartly sunny.10 mph46%30.07 "HgN/A
3:50 PM64 °FPartly sunny.12 mph49%30.09 "HgN/A
3:20 PM63 °FPartly sunny.12 mph49%30.09 "HgN/A
2:50 PM64 °FPartly sunny.10 mph43%30.07 "HgN/A
2:20 PM63 °FPartly sunny.12 mph49%30.09 "HgN/A
1:50 PM61 °FPartly sunny.7 mph55%30.09 "HgN/A
1:20 PM63 °FBroken clouds.7 mph56%30.09 "HgN/A
12:50 PM61 °FBroken clouds.8 mph55%30.07 "HgN/A
12:20 PM61 °FBroken clouds.10 mph52%30.07 "HgN/A
11:50 AM64 °FPartly sunny.10 mph52%30.07 "HgN/A
11:20 AM61 °FPartly sunny.14 mph52%30.07 "HgN/A
10:50 AM61 °FScattered clouds.13 mph55%30.07 "HgN/A
10:20 AM61 °FPartly sunny.12 mph55%30.07 "HgN/A
9:50 AM59 °FPartly sunny.14 mph63%30.07 "HgN/A
9:20 AM57 °FPartly sunny.14 mph72%30.07 "HgN/A
8:50 AM57 °FPartly sunny.13 mph67%30.07 "HgN/A
8:20 AM57 °FPartly sunny.13 mph72%30.04 "HgN/A
7:50 AM54 °FPartly sunny.13 mph82%30.04 "HgN/A
7:20 AM54 °FSunny.12 mph82%30.04 "Hg10 mi
6:50 AM52 °FSunny.12 mph88%30.04 "Hg10 mi
6:20 AM52 °FClear.10 mph88%30.01 "Hg10 mi
5:50 AM52 °FClear.10 mph88%30.01 "Hg10 mi
5:20 AM50 °FClear.9 mph94%30.01 "Hg10 mi
4:50 AM50 °FClear.10 mph88%30.01 "Hg10 mi
4:20 AM48 °FClear.9 mph94%30.01 "Hg10 mi
3:50 AM50 °FClear.10 mph88%29.98 "Hg10 mi
3:20 AM52 °FClear.10 mph82%29.98 "Hg10 mi
Weather by CustomWeather, © 2015

See weather overviewHow to use our weather pages